Location: Saoura-Si
(14.9062°N, 3.1387°W)
Time: 05:18:01
(UTC+00:00)

Daily predictions for brighter satellites

Satellite Brightness Start Highest point End
(mag) Time Altitude Azimuth Time Altitude Azimuth Time Altitude Azimuth
ATLAS 5 CENTAUR R/B 4.2 02:43:44 54° SSE 02:43:44 54° SSE 03:13:46 10° ESE
BREEZE-M DEB (TANK) 4.2 03:44:30 70° E 03:44:30 70° E 04:01:44 10° SE
Ariane H10 4.0 03:52:29 44° S 03:52:29 44° S 03:56:01 10° ESE
Cosmos 2082 Rocket 3.5 04:02:32 32° NE 04:03:37 35° ENE 04:08:39 10° SE
Tsikada Rocket 4.4 04:04:44 10° S 04:10:44 58° E 04:16:48 10° NNE
COSMOS 2406 3.3 04:23:36 61° SSW 04:23:36 61° SSW 04:28:19 10° S
Meteor 2-3 Rocket 3.6 04:19:12 10° S 04:24:48 89° E 04:25:33 68° N
ATLAS 5 CENTAUR R/B 4.0 04:24:09 10° SSE 04:26:42 17° ESE 04:29:12 10° ENE
Cosmos 1833 Rocket 3.7 04:28:57 32° SSW 04:28:57 32° SSW 04:32:14 10° S
NATO 3D Rocket 4.2 04:27:41 45° N 04:27:41 45° N 04:33:54 10° ENE
Cosmos 2221 3.9 04:30:32 30° S 04:30:32 30° S 04:32:47 10° S
Cosmos 1842 Rocket 4.2 04:32:05 46° S 04:32:05 46° S 04:35:11 10° S
COSMOS 2455 2.9 04:32:00 55° SW 04:32:00 55° SW 04:37:24 10° S
Cosmos 540 Rocket 3.3 04:34:11 76° NNW 04:34:36 89° W 04:39:45 10° SSE
FUSE 3.9 04:37:39 63° SW 04:38:29 82° SSE 04:43:53 10° ENE
Cosmos 1900 4.4 04:42:26 46° N 04:43:55 78° ENE 04:48:59 10° SSE
Cosmos 2263 4.0 04:39:15 10° SSW 04:44:51 74° WNW 04:50:32 10° NNE
BREEZE-M R/B 3.8 04:46:44 29° NE 04:47:06 30° NE 04:50:53 10° ESE
Meteor 2-13 Rocket 4.3 04:47:54 10° S 04:54:03 85° W 05:00:10 10° N
Cosmos 2369 Rocket 3.7 04:59:44 19° NNW 04:59:44 19° NNW 05:01:26 10° N
Cosmos 1464 Rocket 4.2 04:54:44 35° NW 04:56:47 46° W 05:02:37 10° SSW
Cosmos 1503 Rocket 4.0 04:54:46 10° S 04:59:58 86° ESE 05:05:14 10° NNE
Tiangong 3.8 05:01:19 11° SSW 05:01:19 11° SSW 05:01:36 10° SSW
Okean 3 Rocket 4.2 05:00:44 10° S 05:05:09 58° E 05:09:35 10° NNE
Cosmos 1486 Rocket 4.4 05:02:27 10° SW 05:07:20 38° WNW 05:12:14 10° N
Cosmos 1862 3.5 05:04:32 10° S 05:08:27 72° E 05:12:21 10° N
Hubble Space Telescope 2.3 05:08:06 20° N 05:09:24 24° NNE 05:12:45 10° ENE
Meteor 1-31 Rocket 2.7 05:09:06 10° NNE 05:13:00 86° E 05:16:55 10° S
GPS 2-18 Rocket1 3.5 05:12:19 34° NW 05:13:36 50° N 05:17:26 10° E
Cosmos 1656 Rocket 4.1 05:09:18 10° SW 05:14:09 34° WNW 05:19:01 10° N
Cosmos 1766 Rocket 3.4 05:10:35 10° S 05:14:57 86° W 05:19:17 10° N
Cosmos 1782 3.1 05:12:03 10° N 05:15:56 66° E 05:19:51 10° SSE
Milstar 3 4.0 05:07:27 22° WNW 05:17:49 64° SSW 05:26:07 10° SE
H-2A R/B 3.0 05:18:04 10° N 05:21:39 43° WNW 05:25:15 10° SSW
CZ-2C R/B 3.9 05:17:06 10° SSE 05:22:20 43° ENE 05:27:30 10° N
YAOGAN 6 3.3 05:23:14 13° NNW 05:25:55 31° WNW 05:29:06 10° SW
Cosmos 841 Rocket 4.3 05:24:02 21° WNW 05:26:28 30° W 05:30:58 10° SSW
ATLAS 2AS CENTAUR RB 4.4 05:03:29 16° W 05:27:04 44° SSW 05:32:47 10° SE
Uosat 12 SS-18 rocket 4.4 05:23:51 10° SW 05:28:05 49° WNW 05:33:00 10° N
MOS 1-B Rocket 4.4 05:21:07 10° SSE 05:28:22 79° ENE 05:34:33 10° N
COSMO-SKYMED 1 3.4 05:29:42 10° SSE 05:33:54 52° ENE 05:38:06 10° N
Iridium 2 4.2 05:31:31 10° SSW 05:35:00 36° W 05:38:30 10° NNW
Cosmos 2098 Rocket 3.5 05:35:08 10° SW 05:37:47 24° W 05:40:51 10° NNW
ATLAS 3B R/B 2.5 05:31:47 10° SSW 05:38:11 78° WNW 05:44:43 10° NNE
Delta 168 4.4 05:38:12 12° W 05:43:42 59° NNW 05:52:36 10° ENE
Centaur D-1A AC-31 2.5 05:42:07 12° NW 05:45:42 61° NNE 05:59:56 10° ESE
CZ-4B R/B 3.2 05:42:58 10° NNE 05:46:31 61° ESE 05:50:12 10° S
Envisat 3.9 05:42:32 10° NNW 05:46:44 27° WNW 05:50:56 10° SW
Cosmos 2082 Rocket 3.7 05:44:27 12° WNW 05:47:18 17° WSW 05:50:49 10° SW
Cosmos 2279 Rocket 4.3 05:41:59 10° N 05:48:10 75° E 05:54:20 10° S
Cosmos 1174 3.9 05:45:51 10° SW 05:48:52 30° WNW 05:51:35 10° N
Cosmos 1408 Rocket 3.4 05:45:02 10° S 05:49:21 77° W 05:53:38 10° N
BREEZE-M DEB (TANK) 2.8 05:46:57 10° WSW 05:49:42 45° NW 05:53:33 10° NNE
OAO 2 Rocket 3.7 05:47:05 10° WSW 05:52:05 46° NNW 05:56:59 10° NE
Cosmos 1743 Rocket 4.3 05:53:10 10° S 05:57:31 59° E 06:01:50 10° NNE
NOAA 12 4.3 05:52:24 10° NNE 05:57:38 79° ESE 06:02:51 10° S
Cosmos 1340 Rocket 3.1 05:55:33 10° S 05:59:26 71° E 06:03:20 10° N
SEDSat Delta rocket 4.4 05:54:41 10° SW 06:01:10 64° SSE 06:06:58 10° ENE
NOAA 11 4.4 05:57:43 10° N 06:03:01 51° WNW 06:08:19 10° SSW
Cosmos 1634 Rocket 4.4 05:58:45 10° NNW 06:04:30 41° W 06:10:14 10° SSW
